TimeCDT,TemperatureF,Dew PointF,Humidity,Sea Level PressureIn,VisibilityMPH,Wind Direction,Wind SpeedMPH,Gust SpeedMPH,PrecipitationIn,Events,Conditions,WindDirDegrees,DateUTC
12:15 AM,33.8,30.2,87,30.15,8.0,NW,20.7,28.8,N/A,Rain,Light Rain,310,2012-10-05 05:15:00
12:35 AM,33.8,30.2,87,30.15,9.0,NW,20.7,25.3,N/A,Rain,Light Rain,310,2012-10-05 05:35:00
12:55 AM,33.8,30.2,87,30.14,10.0,NW,17.3,27.6,N/A,Rain,Light Rain,310,2012-10-05 05:55:00
1:15 AM,33.8,30.2,87,30.14,9.0,WNW,20.7,-,N/A,Rain,Light Rain,300,2012-10-05 06:15:00
1:35 AM,32.0,30.2,93,30.14,7.0,NW,21.9,29.9,N/A,Snow,Light Snow,310,2012-10-05 06:35:00
1:55 AM,32.0,30.2,93,30.14,8.0,NW,19.6,25.3,N/A,Rain,Light Rain,310,2012-10-05 06:55:00
2:15 AM,32.0,30.2,93,30.14,10.0,NW,23.0,29.9,N/A,Rain,Light Rain,310,2012-10-05 07:15:00
2:35 AM,32.0,30.2,93,30.14,10.0,NW,20.7,27.6,N/A,,Mostly Cloudy,310,2012-10-05 07:35:00
2:55 AM,32.0,28.4,87,30.14,8.0,NW,19.6,28.8,N/A,Rain,Light Rain,310,2012-10-05 07:55:00
3:15 AM,32.0,30.2,93,30.13,7.0,NW,17.3,29.9,N/A,Rain,Light Rain,310,2012-10-05 08:15:00
3:35 AM,32.0,30.2,93,30.13,8.0,NW,17.3,28.8,N/A,Rain,Light Rain,310,2012-10-05 08:35:00
3:55 AM,32.0,30.2,93,30.13,6.0,NW,17.3,24.2,N/A,Snow,Light Snow,310,2012-10-05 08:55:00
4:15 AM,32.0,30.2,93,30.13,5.0,NW,20.7,26.5,N/A,Snow,Light Snow,310,2012-10-05 09:15:00
4:35 AM,32.0,30.2,93,30.13,7.0,NW,21.9,25.3,N/A,Snow,Light Snow,310,2012-10-05 09:35:00
4:55 AM,32.0,30.2,93,30.13,10.0,NW,19.6,25.3,N/A,,Mostly Cloudy,310,2012-10-05 09:55:00
5:15 AM,32.0,28.4,87,30.13,10.0,NW,18.4,23.0,N/A,Rain,Light Rain,310,2012-10-05 10:15:00
5:35 AM,32.0,28.4,87,30.13,10.0,NW,19.6,31.1,N/A,,Mostly Cloudy,310,2012-10-05 10:35:00
5:55 AM,32.0,28.4,87,30.13,8.0,NW,18.4,25.3,N/A,Rain,Light Rain,310,2012-10-05 10:55:00
6:15 AM,32.0,28.4,87,30.12,10.0,NW,25.3,31.1,N/A,Rain,Light Rain,310,2012-10-05 11:15:00
6:35 AM,32.0,28.4,87,30.12,9.0,NW,19.6,27.6,N/A,Rain,Light Rain,310,2012-10-05 11:35:00
6:55 AM,32.0,30.2,93,30.13,7.0,NW,21.9,26.5,N/A,Rain,Light Rain,310,2012-10-05 11:55:00
7:15 AM,32.0,30.2,93,30.13,5.0,NW,19.6,27.6,N/A,Rain,Light Rain,320,2012-10-05 12:15:00
7:35 AM,32.0,30.2,93,30.14,4.0,NW,18.4,27.6,N/A,Snow,Light Snow,320,2012-10-05 12:35:00
7:55 AM,32.0,30.2,93,30.14,4.0,NW,19.6,26.5,N/A,Rain,Light Rain,310,2012-10-05 12:55:00
8:15 AM,32.0,30.2,93,30.14,5.0,NW,19.6,25.3,N/A,Rain,Light Rain,310,2012-10-05 13:15:00
8:35 AM,32.0,30.2,93,30.14,2.5,NW,19.6,25.3,N/A,Snow,Light Snow,320,2012-10-05 13:35:00
8:55 AM,32.0,32.0,100,30.15,4.0,NW,20.7,26.5,N/A,Snow,Light Snow,320,2012-10-05 13:55:00
9:15 AM,32.0,32.0,100,30.16,2.5,NW,18.4,24.2,N/A,Snow,Light Snow,320,2012-10-05 14:15:00
9:35 AM,32.0,32.0,100,30.16,1.2,NW,18.4,28.8,N/A,Snow,Light Snow,320,2012-10-05 14:35:00
9:55 AM,32.0,32.0,100,30.17,1.8,NW,19.6,25.3,N/A,Snow,Light Snow,320,2012-10-05 14:55:00
10:15 AM,32.0,32.0,100,30.17,2.5,NW,23.0,29.9,N/A,Snow,Light Snow,320,2012-10-05 15:15:00
10:35 AM,32.0,32.0,100,30.17,1.8,NW,20.7,27.6,N/A,Snow,Light Snow,320,2012-10-05 15:35:00
10:55 AM,32.0,32.0,100,30.18,1.2,NW,20.7,24.2,N/A,Snow,Light Snow,320,2012-10-05 15:55:00
11:15 AM,32.0,32.0,100,30.18,1.5,NW,20.7,27.6,N/A,Snow,Light Snow,320,2012-10-05 16:15:00
11:35 AM,33.8,32.0,93,30.19,2.0,NNW,24.2,32.2,N/A,Snow,Light Snow,330,2012-10-05 16:35:00
12:15 PM,32.0,32.0,100,30.20,1.5,NNW,20.7,31.1,N/A,Snow,Light Snow,330,2012-10-05 17:15:00
12:35 PM,33.8,32.0,93,30.20,1.8,NNW,21.9,28.8,N/A,Snow,Light Snow,330,2012-10-05 17:35:00
12:55 PM,32.0,32.0,100,30.20,1.5,NW,21.9,28.8,N/A,Snow,Light Snow,320,2012-10-05 17:55:00
1:35 PM,32.0,32.0,100,30.21,1.0,NW,18.4,24.2,N/A,Snow,Light Snow,320,2012-10-05 18:35:00
1:55 PM,32.0,32.0,100,30.21,0.8,NW,17.3,24.2,N/A,Snow,Light Snow,320,2012-10-05 18:55:00
2:15 PM,32.0,32.0,100,30.21,1.0,NW,17.3,-,N/A,Snow,Light Snow,320,2012-10-05 19:15:00
2:35 PM,32.0,32.0,100,30.21,1.0,NNW,15.0,-,N/A,Snow,Light Snow,330,2012-10-05 19:35:00
2:55 PM,33.8,32.0,93,30.21,2.0,NNW,15.0,24.2,N/A,Snow,Light Snow,330,2012-10-05 19:55:00
3:15 PM,33.8,32.0,93,30.21,3.0,NNW,18.4,27.6,N/A,Snow,Light Snow,330,2012-10-05 20:15:00
3:35 PM,35.6,32.0,87,30.21,10.0,NNW,18.4,26.5,N/A,Rain,Light Rain,330,2012-10-05 20:35:00
3:55 PM,33.8,32.0,93,30.22,2.5,NNW,20.7,28.8,N/A,Snow,Light Snow,340,2012-10-05 20:55:00
4:15 PM,33.8,32.0,93,30.22,4.0,NNW,20.7,27.6,N/A,Rain,Light Rain,340,2012-10-05 21:15:00
4:35 PM,33.8,32.0,93,30.22,4.0,NNW,20.7,26.5,N/A,Rain,Light Rain,340,2012-10-05 21:35:00
4:55 PM,33.8,32.0,93,30.23,5.0,NNW,17.3,27.6,N/A,Rain,Light Rain,340,2012-10-05 21:55:00
5:15 PM,33.8,32.0,93,30.23,3.0,NNW,21.9,26.5,N/A,,Overcast,340,2012-10-05 22:15:00
5:35 PM,33.8,32.0,93,30.24,3.0,NNW,19.6,27.6,N/A,Snow,Light Snow,340,2012-10-05 22:35:00
5:55 PM,33.8,32.0,93,30.24,3.0,NNW,18.4,23.0,N/A,Snow,Light Snow,340,2012-10-05 22:55:00
6:15 PM,32.0,32.0,100,30.26,2.5,NNW,15.0,-,N/A,Snow,Light Snow,340,2012-10-05 23:15:00
6:35 PM,32.0,32.0,100,30.26,4.0,North,13.8,-,N/A,Snow,Light Snow,350,2012-10-05 23:35:00
6:55 PM,32.0,32.0,100,30.27,2.0,North,15.0,24.2,N/A,Snow,Light Snow,350,2012-10-05 23:55:00
7:15 PM,32.0,32.0,100,30.28,4.0,North,13.8,23.0,N/A,Snow,Light Snow,350,2012-10-06 00:15:00
7:35 PM,32.0,32.0,100,30.28,9.0,North,18.4,25.3,N/A,Rain,Light Rain,350,2012-10-06 00:35:00
7:55 PM,32.0,32.0,100,30.29,10.0,North,16.1,23.0,N/A,,Overcast,360,2012-10-06 00:55:00
8:15 PM,33.8,32.0,93,30.29,10.0,North,16.1,23.0,N/A,,Overcast,350,2012-10-06 01:15:00
8:35 PM,33.8,32.0,93,30.29,10.0,North,13.8,20.7,N/A,,Overcast,360,2012-10-06 01:35:00
8:55 PM,33.8,32.0,93,30.30,10.0,North,15.0,-,N/A,,Overcast,350,2012-10-06 01:55:00
9:15 PM,33.8,32.0,93,30.30,10.0,North,13.8,-,N/A,,Overcast,350,2012-10-06 02:15:00
9:35 PM,33.8,30.2,87,30.31,10.0,North,15.0,19.6,N/A,,Overcast,360,2012-10-06 02:35:00
9:55 PM,33.8,30.2,87,30.31,10.0,North,11.5,-,N/A,,Overcast,360,2012-10-06 02:55:00
10:35 PM,32.0,32.0,100,30.31,10.0,North,13.8,17.3,N/A,,Mostly Cloudy,350,2012-10-06 03:35:00
10:55 PM,32.0,30.2,93,30.31,10.0,North,12.7,18.4,N/A,,Scattered Clouds,360,2012-10-06 03:55:00
11:15 PM,32.0,30.2,93,30.31,10.0,North,12.7,-,N/A,,Mostly Cloudy,360,2012-10-06 04:15:00
11:35 PM,32.0,32.0,100,30.32,10.0,North,10.4,-,N/A,,Overcast,360,2012-10-06 04:35:00
11:55 PM,32.0,32.0,100,30.31,10.0,North,11.5,-,N/A,,Overcast,350,2012-10-06 04:55:00